{"data":{"norad_id":64001,"epoch":"2026-09-20T11:58:06.780576Z","epoch_age_seconds":143765,"freshness":"FRESH","line1":"1 64001U 25101H   26263.49868959  .00008534  00000+0  31928-3 0  9992","line2":"2 64001  43.0054 338.2316 0000880 265.2366  94.8385 15.27578847 76847","mean_motion":15.27578847,"eccentricity":8.8e-5,"inclination_deg":43.0054,"raan_deg":338.2316,"arg_perigee_deg":265.2366,"mean_anomaly_deg":94.8385,"bstar":0.00031928,"rev_number":7684,"period_min":94.266819865175,"perigee_km":482.44876385834,"apogee_km":483.65633321889,"semimajor_km":6861.1895485386,"source":"CELESTRAK","updated_at":"2026-09-21T09:00:35.181140Z"}}